星链-35669(STARLINK-35669)

导读

STARLINK-35669是美国太空探索技术公司SpaceX于2025年11月8日发射的Starlink星链互联网卫星,属于下一代V3卫星序列,是全球低轨卫星互联网星座的组成部分。星链项目旨在为全球偏远、基础设施匮乏地区提供高速卫星互联网接入,该批次V3卫星支持千兆级通信,相比前代大幅提升网络容量,可进一步降低延迟,为全球超六百万用户提供更稳定高速的宽带服务。

基本信息
目录编号:
66396
目录名称:
STARLINK-35669
国际标识:
2025-257S
轨道中心:
EARTH
卫星名称:
星链-35669
卫星全名:
星链-35669(STARLINK-35669)
卫星状态:
在轨 (已飞行311 天)
发射日期:
2025-11-08 UTC
国别 :
美国 (US)
星等 :
--
该卫星已列入 空间交会检测服务 Space Conjunction Data Service (SCDS) ,当前飞行风险评估等级: 无高风险
轨道信息
数据来源 国际轨道数据
星历时间: 2026-09-15T00:44:39+0800
14小时前
查看轨道信息
半长轴: 6840.833km
偏心率: 0.0001099
轨道倾角: 53.160°
近地点辐角 110.978°
升交点赤经 54.686°
平近点角 249.134°
近地点: 461.944km
远地点: 463.448km
周期: 93.848分钟
每日圈数: 15.344026
详细信息
固有亮度:
5
最大亮度:
2.5
卫星平台:
Starlink V1.0
覆盖范围:
全球
运营商:
太空探索技术公司
运营商所在国:
美国
制造商(研发单位):
太空探索技术公司
制造商所在国:
美国
使用方式:
暂无
卫星简介
Starlink 计划是 SpaceX 推出的全球卫星互联网项目,通过发射低轨道卫星,为全球尤其是偏远地区提供高速、低延迟的互联网服务。自 2019 年起,Starlink 已部署数千颗卫星,旨在缩小全球数字鸿沟,推动互联网普及。该项目还为军事、航空等行业提供通信支持,带来广泛经济效益。
2D轨道图
3D轨道图
轨道高度分析图
轨道倾角分析图
轨道综合分析图
查看轨道综合分析图
交会数据列表
事件ID 空间交会对象 最接近时刻(TCA) 交会距离 交会风险概率(CRP) 交会风险指数(CRI) 操作
CDM_260915-171005-245806-639621
2026-09-15T
17:10:07+0000
2.967 km
极远距离
1.114788E-6 低风险 0.36
与全量物体交会距离演化趋势 订阅飞行安全评估服务
与全量物体交会风险概率演化趋势 订阅飞行安全评估服务